Погода в Горном

Украина / Луганская область     48°16′28″N   39°36′15″E
темп.,
°C
ветер,
м/с
пор.,
м/с
влажн.,
%
обл.,
%
осадки,
мм/ч
давл.,
гПа
погр.,
м
24 октября, вс
вс2400:00+11зсз4972100 0.3 1018437
03:00+8сз35647 0.3 101999
06:00+6ссз236698 0.0 102046
09:00+8ссз345749 0.0 1021318
12:00+10ссз4543100 0.0 10211150
15:00+10ссз4442100 0.0 10211299
18:00+8зсз2451100 0.0 1022137
21:00+7сз3753100 0.0 1022245
25 октября, пн
пн2500:00+4сз39615 0.0 1023202
03:00+3сз498243 0.0 1024268
06:00+2сз498028 0.0 1027271
09:00+3ссз58735 0.0 1029577
12:00+6ссз66495 0.0 10301204
15:00+7с56370 0.0 10301306
18:00+4с34435 0.0 103168
21:00+2с22465 0.0 103210
26 октября, вт
вт2600:00+1с11504 0.0 103310
03:000с01520 0.0 103410
06:00−1ссв00550 0.0 103410
09:00+3в11440 0.0 1034154
12:00+7вюв11325 0.0 1034778
15:00+9ююв11265 0.0 1032943
18:00+5в22340 0.0 103210
21:00+3ююв22380 0.0 103210
27 октября, ср
ср2700:00+2ююв22400 0.0 103210
03:00+1юв22430 0.0 103110
06:000юв22470 0.0 103111
09:00+4юв35400 0.0 1031212
12:00+9юв45250 0.0 1028680
15:00+11юв45220 0.0 1026794
18:00+6юв33330 0.0 102629
21:00+4ююв22423 0.0 102518
28 октября, чт
чт2800:00+3юв11515 0.0 102410
03:00+2вюв1155100 0.0 102310
06:00+2в1158100 0.0 102310
09:00+5св1253100 0.0 1024125
12:00+8св334497 0.0 1023502
15:00+11ссв44360 0.0 1023936
18:00+6ссв22480 0.0 102410
21:00+5с21510 0.0 102510